Location: Allonne
(49.4086°N, 2.1143°E)
Time: 11:24:33
(UTC+00:00)

VELOX 1 - Visible Passes

Search period start: 30 November 2023 00:00
Search period end: 10 December 2023 00:00
Orbit: 610 x 625 km, 98.4° (Epoch: 30 November)

Date Brightness Start Highest point End Pass type
(mag) Time Alt. Az. Time Alt. Az. Time Alt. Az.
30 Nov ? 05:29:30 10° SE 05:33:24 35° ENE 05:37:18 10° N visible
01 Dec ? 05:45:49 10° SE 05:49:57 49° ENE 05:54:06 10° N visible
02 Dec ? 04:30:19 10° ENE 04:31:18 11° NE 04:32:16 10° NE visible
02 Dec ? 06:02:16 10° SSE 06:06:32 72° ENE 06:10:49 10° N visible
03 Dec ? 04:45:20 10° E 04:47:41 15° ENE 04:50:02 10° NNE visible
03 Dec ? 06:18:51 10° SSE 06:23:08 79° WSW 06:27:27 10° NNW visible
04 Dec ? 05:01:01 10° ESE 05:04:06 20° ENE 05:07:11 10° NNE visible
04 Dec ? 06:35:34 10° S 06:39:46 54° W 06:43:59 10° NNW visible
05 Dec ? 05:16:57 10° ESE 05:20:32 27° ENE 05:24:08 10° N visible
06 Dec ? 05:33:04 10° SE 05:36:59 36° ENE 05:40:56 10° N visible
07 Dec ? 05:49:19 10° SE 05:53:28 52° ENE 05:57:39 10° N visible
08 Dec ? 04:33:28 10° ENE 04:34:43 11° NE 04:35:57 10° NE visible
08 Dec ? 06:05:42 10° SSE 06:09:58 75° ENE 06:14:16 10° NNW visible
09 Dec ? 04:48:34 10° E 04:51:01 15° ENE 04:53:29 10° NNE visible
09 Dec ? 06:22:13 10° S 06:26:29 76° WSW 06:30:48 10° NNW visible
